Regional Weather Roundup
Issued by NWS Newport/Morehead, NC

Current Version | Previous Version | Graphics & Text | Print | Product List | Glossary Off
Versions: 1 2 3 4 5 6 7 8 9 10 11 12 13 14 15 16 17 18 19 20 21 22 23 24 25 26 27 28 29 30 31 32 33 34 35 36 37 38 39 40 41 42 43 44 45 46 47 48 49 50

000
ASUS42 KMHX 050125
RWRMHX
WEATHER ROUNDUP FOR EASTERN NORTH CAROLINA
NATIONAL WEATHER SERVICE NEWPORT/MOREHEAD CITY NC
900 PM EDT WED MAY 04 2016

NOTE: "FAIR" INDICATES FEW OR NO CLOUDS BELOW 12,000 FEET
WITH NO SIGNIFICANT WEATHER AND/OR OBSTRUCTIONS TO VISIBILITY

NCZ015>017-031-032-045>047-102-103-050200-
NORTH COAST

CITY           SKY/WX    TMP DP  RH WIND       PRES   REMARKS
EDENTON        CLOUDY    63  63 100 E8        29.64R
ELIZABETH CITY CLOUDY    59  56  89 NE14      29.63R
KITTY HAWK     CLOUDY    57  56  97 NE5       29.62S
MANTEO         CLOUDY    57  57  98 NE14      29.64R

$$

NCZ045>047-081-094-103-104-050200-
CENTRAL COAST

CITY           SKY/WX    TMP DP  RH WIND       PRES   REMARKS
FRISCO         LGT RAIN  61  61 100 NE8       29.60R
SWANQUARTER    NOT AVBL

$$

NCZ095-097-098-100-101-050200-
SOUTHERN COAST

CITY           SKY/WX    TMP DP  RH WIND       PRES   REMARKS
BEAUFORT       CLOUDY    69  65  86 NE3       29.59R
CEDAR ISLAND   NOT AVBL
JACKSONVILLE   CLEAR     67  59  75 CALM      29.59R
PINEY ISLAND   CLOUDY   N/A N/A N/A NE5       29.59R
WILMINGTON     CLEAR     67  60  78 S3        29.60R


$$

NCZ011>013-027>030-043-044-078>080-089-090>093-098-050200-
COASTAL PLAIN

CITY           SKY/WX    TMP DP  RH WIND       PRES   REMARKS
AHOSKIE        PTCLDY    61  60  95 CALM      29.62R
CLINTON        PTCLDY    64  59  82 CALM      29.62R
ELIZABETHTOWN  PTCLDY    65  55  69 CALM      29.61R
GOLDSBORO      CLEAR     65  58  77 CALM      29.59R
GREENVILLE     PTCLDY    63  61  94 CALM      29.64S
HAVELOCK       CLOUDY    67  65  93 CALM      29.61R
KENANSVILLE    PTCLDY    60  56  87 CALM      29.62R
KINSTON        CLEAR     63  59  88 CALM      29.61R
NEW BERN       CLOUDY    67  64  90 CALM      29.60R
RICHLANDS      CLEAR     64  60  87 CALM      29.60R
ROCKY MOUNT    CLEAR     61  57  87 CALM      29.60R
WASHINGTON     CLOUDY    66  62  86 N3        29.60R
WHITEVILLE     NOT AVBL

$$

AMZ130-135-150-152-154-156-158-170-250-252-270-ANZ085-086-088-633-658-670-050200-
MARINE OBSERVATIONS

STATION/POSITION TIME  TEMP    WIND        PRES    WAVE   SWELL
                       AIR SEA DIR/SP/G            HT/PER HT/PER
                 (UTC) (F)     (DEG/KT/KT) (MB)    (FT/S) (FT/S)
CHESAPEAKE LIGHT 0100   52      50/ 20/ 22 1004.3
64 E VA BEACH    0050   53 55   10/ 12/ 14 1003.5    4/ 7   3/ 7
DUCK             0100      60              1003.2
2 E DUCK         0011      59                N/A     3/ 4
OREGON INLET     0100      66              1002.8
13E OREGON INLT  0100      60                N/A     3/ 8   2/ 8
HATTERAS CG      0100      70              1002.0
DIAMOND BUOY     0050   66 71   30/ 14/ 16 1002.0    3/ 7   3/ 7
CAPE LOOKOUT     0100   69        CALM     1001.7
BEAUFORT LAB     0100      67              1001.2
30 SE NEW RVR IN 0025      73                N/A     5/ 7
27 SE WRIGHTSVLE 0108   72 72  260/ 14/ 19 1002.1
5 SE WRIGHTSVLE  0108   71 70  260/  8/ 10 1003.2
225 S CAPE HAT   0050   74 74  190/ 17/ 21 1004.3    5/ 6   2/ 9
41 SE CHARLESTON 0050   74 75  230/ 16/ 17 1002.8    4/ 4   2/ 7

$$




USA.gov is the U.S. government's official web portal to all federal, state and local government web resources and services.